Theta_e
350 349 343 343 341 341 339 336 333 329 323 324 321 321 319 317 315 314 313 312 308 307 306 306 306 307 308 308 308 308 309 309 310 310 312 312 312 313
345 346 335 328 331 332 327 329 331 322 321 319 317 319 318 315 313 312 312 308 311 306 305 305 305 306 306 306 306 306 307 307 308 309 309 310 310 311
337 340 331 328 321 323 325 322 319 316 314 314 317 315 315 314 312 312 311 312 312 307 304 305 305 305 305 305 305 305 306 306 306 306 307 307 308 309
331 330 326 320 315 313 316 314 311 314 311 313 312 311 311 311 311 310 310 311 312 310 304 304 304 304 304 304 304 304 304 304 305 306 306 306 306 307
329 325 321 314 312 310 310 308 307 308 308 308 309 309 309 309 308 311 311 313 312 309 308 306 306 305 305 304 303 303 303 304 304 304 304 305 305 306
318 313 313 310 310 309 309 308 306 307 308 307 306 306 307 308 308 307 308 310 310 312 310 310 308 310 306 304 304 305 305 304 303 303 303 303 303 304
308 305 306 306 306 305 303 305 306 306 305 303 303 305 305 305 305 306 306 308 310 312 309 311 312 311 312 308 307 304 303 303 303 302 302 302 301 302
302 303 305 304 303 303 303 301 302 306 304 302 303 303 306 306 306 305 306 303 302 311 308 309 312 311 312 309 304 303 303 302 302 302 302 302 301 302
303 302 302 302 301 300 300 300 300 299 301 306 306 305 306 306 305 304 304 302 304 308 308 306 311 305 311 308 304 302 302 301 301 301 301 301 301 300
302 301 300 300 301 301 301 301 303 302 303 305 307 306 305 305 305 305 306 308 309 308 309 303 308 305 304 309 303 302 301 301 300 301 301 301 300 299
298 298 299 299 297 298 301 301 302 303 297 297 297 296 296 295 298 305 305 303 303 305 308 301 306 305 303 303 307 302 301 300 300 300 300 300 300 299
295 295 295 296 295 296 303 303 302 303 305 307 308 304 302 306 299 306 303 300 303 301 305 300 303 300 296 307 301 300 299 300 300 300 300 301 300 302
294 294 295 294 294 294 296 301 299 302 302 307 309 309 309 310 308 307 306 304 303 301 305 301 299 298 295 293 295 298 299 300 300 301 300 300 299 300
295 295 294 291 291 292 296 292 294 297 306 306 306 306 306 306 306 309 308 307 306 304 306 304 298 296 294 293 292 297 298 300 300 299 301 298 298 298
295 293 292 291 291 294 293 294 299 305 305 305 304 305 306 307 310 308 309 307 306 306 304 305 300 298 296 294 293 295 296 298 300 301 300 299 299 300
296 297 295 295 295 298 301 302 304 303 303 304 304 306 307 308 307 306 303 303 302 303 306 306 303 298 296 297 297 296 297 296 300 300 302 299 299 300
298 299 298 298 298 299 301 302 303 304 304 305 305 305 305 306 305 305 304 302 300 300 300 301 303 300 300 300 296 296 296 297 299 300 302 300 298 299
298 297 296 296 296 297 298 300 302 302 303 304 304 304 304 304 303 303 302 301 299 299 298 298 299 296 296 299 299 296 296 297 298 301 303 301 296 296
296 296 295 296 296 296 297 298 300 302 304 303 303 304 302 302 302 301 301 300 297 296 296 295 295 292 290 290 296 299 295 297 296 298 300 301 297 297
296 295 295 296 296 296 297 297 299 301 302 302 302 302 301 301 301 300 300 297 294 293 293 294 294 293 291 291 292 296 294 296 295 294 297 301 299 298
295 296 296 296 297 297 297 297 299 300 301 302 301 301 300 301 301 299 300 292 292 293 290 291 293 289 297 298 294 294 298 297 297 295 296 301 303 299
296 296 296 297 297 297 297 297 298 299 300 300 300 301 301 301 300 298 299 297 294 292 292 293 295 295 294 293 292 294 296 299 300 298 296 295 296 296
296 296 296 296 297 297 297 296 297 299 300 300 300 302 302 301 300 301 299 298 294 291 291 291 294 295 293 293 291 294 294 297 297 298 297 296 296 296
Wind_Speed
13 13 11 4 4 3 4 3 7 7 8 8 5 4 4 4 4 7 7 5 10 11 10 12 14 14 15 16 16 16 16 17 16 16 15 12 12 12
8 11 8 4 4 3 3 1 3 6 7 4 3 3 3 3 3 7 8 11 10 6 8 11 13 14 15 16 16 16 15 14 14 15 14 13 11 11
9 12 11 13 6 3 3 4 3 3 3 3 1 5 5 3 6 7 9 8 6 7 3 10 13 13 14 14 14 14 13 13 14 13 13 14 14 14
13 12 12 9 9 9 2 6 4 5 1 4 3 4 2 3 5 9 6 7 7 4 2 9 12 12 13 13 13 12 12 14 14 14 15 15 14 14
13 13 13 12 10 6 10 6 2 7 2 2 3 2 2 3 7 5 6 7 6 2 11 15 12 10 12 10 10 11 12 11 11 13 14 15 15 15
11 11 11 9 11 9 10 6 5 4 3 2 1 1 2 3 5 7 7 7 8 5 3 8 8 8 8 5 9 9 7 8 9 11 13 13 14 15
15 13 12 14 12 13 7 7 2 4 3 2 2 1 4 5 6 7 7 8 8 4 8 7 7 4 0 2 7 3 9 10 11 13 14 13 13 14
18 16 14 15 19 21 22 18 11 4 3 4 3 3 4 5 6 8 7 8 8 5 10 9 5 7 7 4 8 10 10 11 12 14 14 15 13 12
15 14 11 8 14 11 19 16 11 9 8 5 5 6 5 7 7 8 8 8 9 9 9 9 7 8 10 4 8 7 10 12 13 13 14 14 13 12
13 11 10 7 10 9 11 8 5 7 5 6 6 6 6 8 7 7 8 8 7 2 5 6 10 8 9 10 3 8 11 12 12 12 14 12 12 11
13 11 8 7 6 9 10 8 6 6 7 7 3 3 6 7 5 8 8 8 8 8 5 6 8 12 8 8 7 12 12 15 14 14 15 13 11 10
13 9 15 9 11 8 8 6 7 7 6 6 4 7 10 6 8 5 6 7 8 7 5 8 9 7 7 5 10 7 9 12 14 15 15 13 11 5
10 8 6 12 13 14 13 9 6 6 4 4 4 5 5 6 6 5 4 7 8 5 5 6 6 6 2 6 7 9 8 9 9 9 11 9 6 3
10 10 9 14 14 11 8 5 8 7 6 5 6 6 6 6 6 6 7 6 7 9 8 8 4 5 6 8 6 8 9 8 8 8 4 5 4 2
11 11 10 10 12 9 5 9 6 8 7 7 6 6 5 5 6 7 6 8 9 4 6 7 7 6 6 5 7 8 11 9 6 7 4 5 5 4
11 8 10 9 7 7 5 7 9 8 8 7 6 6 6 6 7 8 8 8 7 6 6 6 6 6 6 6 7 8 9 6 8 7 4 4 4 4
8 8 8 9 10 9 9 10 10 9 7 7 7 7 8 8 9 9 9 8 8 8 8 9 8 7 7 4 5 8 9 7 7 7 6 5 8 8
9 10 10 10 10 10 10 10 9 8 8 8 8 9 9 9 10 8 8 9 9 8 8 9 10 9 6 1 3 7 8 9 7 8 7 6 7 8
11 10 10 10 10 10 9 9 9 9 10 9 9 10 10 9 8 8 8 9 10 10 8 7 8 6 5 4 5 7 9 9 9 6 6 6 5 6
11 11 11 11 10 9 9 10 10 10 9 10 10 10 8 8 8 9 9 10 7 8 7 7 8 7 4 4 4 5 10 10 8 6 4 3 2 2
11 11 10 10 10 10 9 10 10 10 11 10 9 8 8 8 9 9 9 8 6 7 8 7 7 8 5 4 3 4 7 11 14 10 6 4 5 6
10 10 10 10 10 10 11 10 10 11 10 10 8 8 8 8 10 11 10 10 9 7 6 6 7 6 5 5 5 6 5 6 7 17 23 17 5 5
10 10 11 11 11 11 11 11 11 10 10 9 8 9 9 9 9 9 11 10 8 8 9 7 6 5 5 5 5 6 8 7 7 9 12 19 21 18
Wind_Direction
227 219 220 171 178 238 301 248 228 257 218 160 200 155 245 220 70 298 296 355 304 284 296 308 302 294 297 299 299 302 304 302 301 299 300 303 304 325
217 200 165 129 163 167 219 211 281 285 287 50 201 145 222 265 137 298 308 290 257 237 280 303 291 298 299 302 302 301 300 303 303 300 301 305 309 311
179 189 169 151 136 111 206 160 128 303 275 118 176 149 233 274 321 324 295 302 299 179 266 289 296 301 297 298 303 304 306 307 304 301 305 301 302 296
181 166 160 140 107 115 352 66 87 52 360 216 68 196 231 326 315 302 320 311 316 84 242 278 280 290 293 295 298 306 299 299 296 302 301 300 294 291
160 154 148 128 137 143 137 134 80 94 237 171 166 214 324 12 309 299 325 312 298 292 213 232 244 260 269 291 305 296 288 283 290 297 298 297 295 291
111 118 122 123 126 128 107 92 84 120 128 148 166 350 1 352 311 348 330 343 330 325 278 259 253 238 241 272 288 282 288 308 304 297 295 295 289 283
105 99 98 105 108 105 107 74 107 143 157 139 64 306 26 349 2 340 332 343 323 339 345 322 323 314 190 305 285 354 332 318 312 308 303 295 285 277
112 105 103 104 93 94 85 69 47 94 129 50 69 49 30 10 5 353 339 349 337 358 332 326 327 336 322 335 297 309 307 310 307 301 299 297 287 276
108 109 115 107 103 103 99 95 75 67 55 76 71 44 13 3 349 339 347 330 317 327 329 321 10 329 324 336 293 295 302 303 297 294 296 297 289 280
93 88 97 131 131 115 97 106 117 84 49 57 52 38 11 357 343 321 297 306 297 286 15 305 333 338 331 324 316 273 289 300 304 303 302 294 291 284
82 82 89 108 96 102 112 119 115 106 140 133 144 175 226 226 274 308 5 333 332 342 48 325 331 333 329 285 29 359 339 313 306 300 299 292 290 295
83 80 68 58 45 41 108 113 87 64 33 49 105 197 226 171 201 315 321 321 332 327 73 334 344 357 324 326 342 322 312 310 302 299 293 290 287 288
95 86 85 60 50 43 47 53 45 322 112 31 22 27 17 23 16 355 327 318 327 316 349 356 311 326 266 299 307 308 307 317 312 306 299 306 315 272
101 97 85 72 60 42 65 347 306 293 40 35 29 27 8 13 338 2 359 335 322 297 313 309 282 296 294 297 297 313 320 319 316 310 1 330 335 20
85 97 116 123 132 101 48 344 11 34 34 33 23 17 2 1 337 16 352 356 334 289 309 309 307 314 305 287 289 313 327 329 324 336 15 6 18 14
117 101 94 105 99 71 71 50 51 39 19 21 15 4 11 11 13 13 1 357 329 329 342 320 334 324 301 280 298 319 332 327 337 346 357 26 28 28
115 103 81 68 62 57 56 46 42 31 25 21 21 15 21 15 14 10 351 341 339 348 346 353 358 344 291 298 320 336 335 340 343 338 359 47 37 27
87 78 70 62 55 49 42 39 37 29 20 21 23 22 19 9 3 355 352 350 354 351 352 351 355 359 347 290 355 338 351 346 344 350 10 44 37 24
75 70 64 57 52 45 38 36 31 28 20 25 25 24 12 355 357 352 356 6 3 356 2 351 354 354 340 345 326 338 351 354 343 354 8 40 39 45
64 60 57 53 46 41 38 32 30 22 25 26 23 21 1 345 355 3 5 5 353 350 344 349 356 351 331 328 322 321 350 4 3 350 353 355 100 8
61 58 53 49 44 41 30 34 35 31 20 21 15 9 358 350 6 4 358 9 356 358 346 347 338 316 325 323 347 345 349 34 31 21 345 356 69 28
61 58 54 45 38 33 30 25 29 30 24 17 4 1 6 4 9 6 0 6 7 353 341 340 339 357 7 6 5 8 2 6 50 51 49 49 6 64
54 50 49 42 37 32 22 23 25 23 21 12 3 6 9 11 11 2 2 14 19 358 347 347 353 9 12 7 6 23 18 23 35 43 57 53 58 69